This demonstration page uses our WeatherBlox Daily Observations layout. Learn more.

40.92945, -100.16068

Hourly Observations for June 17, 2015

Temp ( °F °C ) Dew Point ( °F °C ) Humidity (%) Winds ( mph kmh ) Pressure ( in mb ) Visibility ( mi km ) Precip ( " mm )
4:15 am 04:15 Partly Cloudy 63 17.3 62 16.7 96 96 SE 10 17 29.94 1014 10 16.0934 N/A
4:55 am 04:55 Clear 62 16.8 61 16.1 96 96 N 7 11 29.97 1015 10 16.0934 N/A
5:15 am 05:15 Clear 62 16.8 61 16.1 96 96 N 6 9 29.97 1015 10 16.0934 N/A
5:35 am 05:35 Clear 62 16.7 61 16.1 96 96 N 6 9 29.97 1015 10 16.0934 N/A
5:55 am 05:55 Clear 62 16.5 61 16 97 97 NNW 5 7 29.97 1015 10 16.0934 N/A
6:15 am 06:15 Sunny 62 16.4 60 15.8 96 96 NNW 7 11 30 1016 10 16.0934 N/A
6:35 am 06:35 Sunny 62 16.5 61 16 97 97 NNW 6 9 29.97 1015 10 16.0934 N/A
6:55 am 06:55 Sunny 63 17.1 62 16.6 97 97 NNW 7 11 29.97 1015 10 16.0934 0 0
7:15 am 07:15 Sunny 64 18 64 17.5 97 97 N 5 7 29.97 1015 10 16.0934 N/A
7:35 am 07:35 Sunny 65 18.2 64 17.6 96 96 N 5 7 29.97 1015 10 16.0934 N/A
7:55 am 07:55 Sunny 64 18 63 17.3 96 96 NNW 7 11 29.97 1015 10 16.0934 N/A
8:15 am 08:15 Sunny 65 18.1 63 17.2 95 95 NNW 6 9 29.97 1015 10 16.0934 N/A
8:35 am 08:35 Sunny 66 18.7 63 17.4 92 92 NNW 6 9 29.97 1015 10 16.0934 N/A
8:55 am 08:55 Sunny 67 19.5 64 17.6 89 89 NNW 6 9 29.97 1015 10 16.0934 N/A
9:15 am 09:15 Sunny 69 20.3 64 17.9 86 86 NNW 6 9 29.97 1015 10 16.0934 N/A
9:35 am 09:35 Sunny 70 21 64 18 83 83 N 5 7 29.94 1014 10 16.0934 N/A
9:55 am 09:55 Sunny 71 21.8 64 17.6 77 77 N 8 13 29.94 1014 10 16.0934 N/A
10:15 am 10:15 Sunny 73 22.5 65 18.2 77 77 NNW 8 13 29.94 1014 10 16.0934 N/A
10:35 am 10:35 Sunny 73 22.9 65 18.1 74 74 N 8 13 29.94 1014 10 16.0934 N/A
10:55 am 10:55 Sunny 74 23.3 64 18 72 72 N 7 11 29.94 1014 10 16.0934 N/A
11:15 am 11:15 Sunny 75 23.9 65 18.1 70 70 NNE 8 13 29.91 1013 10 16.0934 N/A
11:35 am 11:35 Sunny 75 24.1 64 18 69 69 NNE 9 15 29.91 1013 10 16.0934 N/A
11:55 am 11:55 Sunny 76 24.5 65 18.3 68 68 NNE 8 13 29.91 1013 10 16.0934 N/A
12:15 pm 12:15 Sunny 77 25.1 65 18.6 67 67 NNE 6 9 29.91 1013 10 16.0934 N/A
12:35 pm 12:35 Sunny 78 25.5 65 18.5 65 65 NE 7 11 29.91 1013 10 16.0934 N/A
12:55 pm 12:55 Partly Cloudy 78 25.6 66 18.8 66 66 NE 7 11 29.91 1013 10 16.0934 N/A
1:15 pm 13:15 Partly Cloudy 78 25.8 65 18.5 64 64 E 7 11 29.91 1013 10 16.0934 N/A
1:35 pm 13:35 Partly Cloudy 79 26 66 18.7 64 64 E 9 15 29.91 1013 10 16.0934 N/A
1:55 pm 13:55 Partly Cloudy 79 26.2 65 18.4 62 62 ENE 7 11 29.91 1013 10 16.0934 N/A
2:15 pm 14:15 Partly Cloudy 78 25.7 64 17.9 62 62 ENE 8 13 29.91 1013 10 16.0934 N/A
2:35 pm 14:35 Partly Cloudy 79 26.2 65 18.4 62 62 ENE 10 17 29.91 1013 10 16.0934 N/A
2:55 pm 14:55 Partly Cloudy 80 26.5 65 18.5 62 62 ENE 7 11 29.91 1013 10 16.0934 N/A
3:15 pm 15:15 Partly Cloudy 78 25.8 65 18.2 63 63 ENE 8 13 29.91 1013 10 16.0934 N/A
3:35 pm 15:35 Partly Cloudy 80 26.5 66 18.9 63 63 ENE 10 17 29.91 1013 10 16.0934 N/A
3:55 pm 15:55 Sunny 79 26.2 64 18 61 61 E 6 9 29.91 1013 10 16.0934 N/A
4:15 pm 16:15 Partly Cloudy 79 26.1 65 18.1 61 61 E 9 15 29.91 1013 10 16.0934 N/A
4:35 pm 16:35 Sunny 80 26.5 65 18.2 60 60 E 10 17 29.91 1013 10 16.0934 N/A
4:55 pm 16:55 Partly Cloudy 78 25.8 65 18.4 64 64 E 5 7 29.91 1013 10 16.0934 N/A
5:15 pm 17:15 Sunny 79 26.1 64 18 61 61 ESE 8 13 29.91 1013 10 16.0934 N/A
5:35 pm 17:35 Sunny 80 26.9 64 17.7 57 57 ESE 3 6 29.91 1013 10 16.0934 N/A
5:55 pm 17:55 Partly Cloudy 79 26.3 65 18.3 61 61 ESE 6 9 29.91 1013 10 16.0934 N/A
6:15 pm 18:15 Sunny 79 26.1 64 18 61 61 E 7 11 29.88 1012 10 16.0934 N/A
6:35 pm 18:35 Sunny 79 26.1 65 18.4 63 63 ESE 6 9 29.88 1012 10 16.0934 N/A
6:55 pm 18:55 Sunny 79 26.3 64 18 60 60 E 6 9 29.88 1012 10 16.0934 N/A
7:15 pm 19:15 Sunny with Light Rain 78 25.7 64 17.9 62 62 ESE 7 11 29.88 1012 10 16.0934 N/A
7:35 pm 19:35 Sunny 78 25.3 65 18.1 64 64 E 6 9 29.88 1012 10 16.0934 N/A
7:55 pm 19:55 Sunny 77 25 65 18.6 68 68 E 5 7 29.88 1012 10 16.0934 N/A
8:15 pm 20:15 Sunny 76 24.5 65 18.1 68 68 ESE 8 13 29.88 1012 10 16.0934 N/A
8:35 pm 20:35 Sunny 75 24 64 18 69 69 ESE 6 9 29.88 1012 10 16.0934 N/A
8:55 pm 20:55 Sunny 73 23 65 18.2 74 74 E 6 9 29.91 1013 10 16.0934 N/A
9:15 pm 21:15 Clear 72 22 65 18.4 80 80 E 6 9 29.91 1013 10 16.0934 N/A
9:35 pm 21:35 Clear 70 21 65 18.5 86 86 E 6 9 29.91 1013 10 16.0934 N/A
9:55 pm 21:55 Clear 68 20.2 65 18.4 89 89 E 6 9 29.97 1015 10 16.0934 N/A
10:15 pm 22:15 Clear 68 20.2 65 18.5 90 90 E 6 9 29.97 1015 10 16.0934 N/A
10:35 pm 22:35 Clear 68 20 65 18.3 90 90 E 6 9 29.97 1015 10 16.0934 N/A
10:55 pm 22:55 Clear 67 19.7 65 18.3 92 92 ENE 6 9 29.97 1015 10 16.0934 N/A
11:15 pm 23:15 Partly Cloudy 67 19.6 65 18.2 92 92 ENE 7 11 29.97 1015 10 16.0934 N/A
11:35 pm 23:35 Mostly Cloudy 67 19.6 65 18.4 93 93 ENE 5 7 29.97 1015 10 16.0934 N/A
11:55 pm 23:55 Cloudy 68 20.2 66 19 93 93 ENE 5 7 29.97 1015 10 16.0934 N/A

Powered by AerisWeather